TimeEST,TemperatureF,Dew PointF,Humidity,Sea Level PressureIn,VisibilityMPH,Wind Direction,Wind SpeedMPH,Gust SpeedMPH,PrecipitationIn,Events,Conditions,WindDirDegrees,DateUTC
12:56 AM,28.0,23.0,81,29.91,10.0,WNW,15.0,-,0.00,Snow,Light Snow,290,2012-12-23 05:56:00
1:11 AM,28.4,23.0,80,29.86,10.0,West,9.2,-,0.00,Snow,Light Snow,280,2012-12-23 06:11:00
1:56 AM,28.0,23.0,81,29.92,10.0,West,12.7,-,0.00,Snow,Light Snow,280,2012-12-23 06:56:00
2:56 AM,28.0,24.1,85,29.92,10.0,West,11.5,-,0.00,Snow,Light Snow,280,2012-12-23 07:56:00
3:04 AM,28.4,24.8,86,29.88,10.0,West,9.2,-,0.00,Snow,Light Snow,280,2012-12-23 08:04:00
3:56 AM,28.0,24.1,85,29.91,10.0,West,9.2,-,0.00,Snow,Light Snow,280,2012-12-23 08:56:00
4:56 AM,28.0,23.0,81,29.91,10.0,West,8.1,-,0.00,Snow,Light Snow,270,2012-12-23 09:56:00
5:47 AM,28.4,21.2,74,29.87,10.0,West,5.8,-,0.00,,Overcast,270,2012-12-23 10:47:00
5:56 AM,29.1,22.1,75,29.91,10.0,West,6.9,-,0.00,,Overcast,280,2012-12-23 10:56:00
6:23 AM,28.4,21.2,74,29.87,10.0,WSW,4.6,-,N/A,,Overcast,250,2012-12-23 11:23:00
6:25 AM,28.4,21.2,74,29.87,10.0,WSW,4.6,-,N/A,,Overcast,250,2012-12-23 11:25:00
6:56 AM,28.0,23.0,81,29.91,10.0,SW,5.8,-,N/A,,Overcast,230,2012-12-23 11:56:00
7:56 AM,29.1,23.0,78,29.91,10.0,SW,6.9,-,0.00,,Overcast,220,2012-12-23 12:56:00
8:56 AM,29.1,24.1,81,29.90,10.0,SW,8.1,-,0.00,,Overcast,220,2012-12-23 13:56:00
9:56 AM,30.0,25.2,82,29.85,10.0,SW,13.8,-,N/A,,Overcast,220,2012-12-23 14:56:00
10:56 AM,32.0,23.0,69,29.88,10.0,WSW,12.7,-,N/A,,Overcast,250,2012-12-23 15:56:00
11:56 AM,32.0,21.0,64,29.85,10.0,SW,11.5,-,N/A,,Mostly Cloudy,220,2012-12-23 16:56:00
12:56 PM,32.9,18.1,55,29.83,10.0,WSW,12.7,-,N/A,,Scattered Clouds,250,2012-12-23 17:56:00
1:56 PM,34.0,16.2,48,29.81,10.0,West,11.5,-,N/A,,Clear,270,2012-12-23 18:56:00
2:56 PM,34.9,17.1,48,29.82,10.0,WSW,9.2,-,N/A,,Clear,250,2012-12-23 19:56:00
3:56 PM,32.9,16.2,50,29.84,10.0,West,9.2,-,N/A,,Scattered Clouds,270,2012-12-23 20:56:00
4:56 PM,32.0,17.1,54,29.86,10.0,West,9.2,-,N/A,,Mostly Cloudy,260,2012-12-23 21:56:00
5:56 PM,32.9,19.0,57,29.87,10.0,West,13.8,-,N/A,,Overcast,270,2012-12-23 22:56:00
6:56 PM,32.0,22.1,67,29.90,10.0,West,18.4,-,N/A,,Overcast,280,2012-12-23 23:56:00
7:56 PM,31.1,20.1,64,29.92,10.0,West,12.7,-,N/A,,Overcast,270,2012-12-24 00:56:00
8:56 PM,31.1,21.0,66,29.93,10.0,West,11.5,-,N/A,,Overcast,260,2012-12-24 01:56:00
9:56 PM,31.1,22.1,69,29.94,10.0,West,9.2,-,N/A,,Overcast,270,2012-12-24 02:56:00
10:56 PM,31.1,23.0,72,29.96,10.0,NW,9.2,-,N/A,,Overcast,310,2012-12-24 03:56:00
11:56 PM,30.0,23.0,75,29.98,10.0,NW,12.7,-,0.00,,Overcast,320,2012-12-24 04:56:00